SCP
0 0 0 0 0 0 0 0 0 0 0 0 0 0 0 0 0 0 0 0 0 0
0 0 0 0 0 0 0 0 0 0 0 0 0 0 0 0 0 0 0 0 0 0
0 0 0 0 0 0 0 0 0 0 0 0 0 0 0 0 0 0 0 0 0 0
0 0 0 0 0 0 0 0 0 0 0 0 0 0 0 0 0 0 0 0 0 0
0 0 0 0 0 0 0 0 0 0 0 0 0 0 0 0 0 0 0 0 0 0
0 0 0 0 0 0 0 0 0 0 0 0 0 0 0 0 0 0 0 0 0 0
0 0 0 0 0 0 0 0 0 0 0 0 0 0 0 0 0 0 0 0 0 0
0 0 0 0 0 0 0 0 0 0 0 0 0 0 0 0 0 0 0 0 0 0
0 0 0 0 0 0 0 0 0 0 0 0 0 0 0 0 0 0 0 0 0 0
0 0 0 0 0 0 0 0 0 0 0 0 0 0 0 0 0 0 0 0 0 0
0 0 0 0 0 0 0 0 0 0 0 0 0 0 0 0 0 0 0 0 0 0
0 0 0 0 0 0 0 0 0 0 0 0 0 0 0 0 0 0 0 0 0 0
0 0 0 0 0 0 0 0 0 0 0 0 0 0 0 0 0 0 0 0 0 0
0 0 0 0 0 0 0 0 0 0 0 0 0 0 0 0 0 0 0 0 0 0
Wind_Speed_500mb
71 65 69 62 60 65 63 64 60 65 60 58 59 58 49 30 26 20 13 5 9 12
68 56 66 62 67 65 63 68 71 68 63 58 47 39 29 12 4 6 6 11 21 26
64 63 69 70 71 69 71 70 63 61 52 38 18 12 17 15 29 30 34 30 22 24
55 57 70 70 70 70 73 76 62 50 16 13 11 24 23 25 18 17 14 12 15 15
92 67 62 65 70 69 69 54 46 19 15 7 26 27 24 17 11 14 19 15 11 13
80 87 90 65 49 46 33 35 38 25 8 30 30 22 18 18 20 20 17 14 13 17
84 83 81 75 63 54 53 46 33 26 35 33 26 23 24 23 16 13 14 14 15 17
95 89 85 81 77 73 69 53 43 47 48 38 30 27 21 16 13 13 13 14 14 15
85 92 94 89 79 71 63 57 52 39 38 39 32 26 20 14 10 10 9 11 12 12
76 85 84 78 74 63 55 50 45 41 31 30 26 20 15 10 8 7 4 4 8 11
66 59 59 64 60 57 47 42 36 37 32 23 20 16 13 10 7 4 3 7 11 16
58 57 48 62 47 44 35 40 32 27 26 22 18 16 11 9 8 6 5 8 11 15
43 49 41 42 41 35 37 29 31 29 26 21 19 15 11 7 4 4 7 8 12 19
40 36 34 37 36 36 34 31 30 26 26 22 21 16 11 6 1 5 7 10 14 19
Wind_Direction_500mb
235 237 221 219 229 223 226 227 229 227 226 232 237 241 243 233 197 183 164 152 258 269
239 234 219 221 227 225 227 226 226 223 224 221 208 181 149 139 157 265 200 261 286 284
234 229 222 220 221 224 224 217 217 219 201 170 164 225 235 260 267 260 267 277 274 267
228 228 226 226 224 225 228 214 187 157 153 182 219 237 225 225 219 249 254 236 240 248
229 239 237 222 211 197 189 179 163 159 189 171 221 235 227 230 204 234 243 248 249 267
221 218 221 219 215 181 201 182 162 178 224 217 212 209 219 213 200 213 232 241 258 275
218 214 207 206 199 205 184 196 203 210 198 206 200 199 199 198 201 221 247 258 262 276
209 203 192 195 189 183 184 190 190 186 184 191 191 189 209 210 215 235 264 291 296 297
201 187 185 181 180 178 176 178 174 172 171 179 182 183 192 201 225 248 260 274 295 318
184 179 175 170 167 162 160 162 162 159 180 178 175 174 182 193 201 217 240 306 335 343
174 165 157 152 151 146 148 151 173 165 176 176 166 161 172 172 154 122 51 15 2 358
151 144 144 135 143 139 159 165 167 158 161 167 158 151 140 130 123 106 73 43 16 359
143 134 144 137 141 162 157 171 162 166 161 155 145 131 113 114 91 82 45 12 358 355
126 140 153 147 155 159 158 168 166 161 154 150 145 142 152 152 29 9 10 1 350 344
Wind_Speed_850mb
71 65 69 62 60 65 63 64 60 65 60 58 59 58 49 30 26 20 13 5 9 12
68 56 66 62 67 65 63 68 71 68 63 58 47 39 29 12 4 6 6 11 21 26
64 63 69 70 71 69 71 70 63 61 52 38 18 12 17 15 29 30 34 30 22 24
55 57 70 70 70 70 73 76 62 50 16 13 11 24 23 25 18 17 14 12 15 15
92 67 62 65 70 69 69 54 46 19 15 7 26 27 24 17 11 14 19 15 11 13
80 87 90 65 49 46 33 35 38 25 8 30 30 22 18 18 20 20 17 14 13 17
84 83 81 75 63 54 53 46 33 26 35 33 26 23 24 23 16 13 14 14 15 17
95 89 85 81 77 73 69 53 43 47 48 38 30 27 21 16 13 13 13 14 14 15
85 92 94 89 79 71 63 57 52 39 38 39 32 26 20 14 10 10 9 11 12 12
76 85 84 78 74 63 55 50 45 41 31 30 26 20 15 10 8 7 4 4 8 11
66 59 59 64 60 57 47 42 36 37 32 23 20 16 13 10 7 4 3 7 11 16
58 57 48 62 47 44 35 40 32 27 26 22 18 16 11 9 8 6 5 8 11 15
43 49 41 42 41 35 37 29 31 29 26 21 19 15 11 7 4 4 7 8 12 19
40 36 34 37 36 36 34 31 30 26 26 22 21 16 11 6 1 5 7 10 14 19
Wind_Direction_850mb
235 237 221 219 229 223 226 227 229 227 226 232 237 241 243 233 197 183 164 152 258 269
239 234 219 221 227 225 227 226 226 223 224 221 208 181 149 139 157 265 200 261 286 284
234 229 222 220 221 224 224 217 217 219 201 170 164 225 235 260 267 260 267 277 274 267
228 228 226 226 224 225 228 214 187 157 153 182 219 237 225 225 219 249 254 236 240 248
229 239 237 222 211 197 189 179 163 159 189 171 221 235 227 230 204 234 243 248 249 267
221 218 221 219 215 181 201 182 162 178 224 217 212 209 219 213 200 213 232 241 258 275
218 214 207 206 199 205 184 196 203 210 198 206 200 199 199 198 201 221 247 258 262 276
209 203 192 195 189 183 184 190 190 186 184 191 191 189 209 210 215 235 264 291 296 297
201 187 185 181 180 178 176 178 174 172 171 179 182 183 192 201 225 248 260 274 295 318
184 179 175 170 167 162 160 162 162 159 180 178 175 174 182 193 201 217 240 306 335 343
174 165 157 152 151 146 148 151 173 165 176 176 166 161 172 172 154 122 51 15 2 358
151 144 144 135 143 139 159 165 167 158 161 167 158 151 140 130 123 106 73 43 16 359
143 134 144 137 141 162 157 171 162 166 161 155 145 131 113 114 91 82 45 12 358 355
126 140 153 147 155 159 158 168 166 161 154 150 145 142 152 152 29 9 10 1 350 344